Time,TemperatureF,DewpointF,PressureIn,WindDirection,WindDirectionDegrees,WindSpeedMPH,WindSpeedGustMPH,Humidity,HourlyPrecipIn,Conditions,Clouds,dailyrainin,SoftwareType,DateUTC
2013-07-26 00:00:00,77.4,57.8,29.53,North,-999,0.0,0.0,51,0.00,,,0.00,LWC V1.12 B30,2013-07-26 06:00:00,
2013-07-26 00:05:00,77.4,58.4,29.53,North,-999,0.0,0.0,52,0.00,,,0.00,LWC V1.12 B30,2013-07-26 06:05:00,
2013-07-26 00:10:00,77.3,58.3,29.53,North,-999,0.0,0.0,52,0.00,,,0.00,LWC V1.12 B30,2013-07-26 06:10:00,
2013-07-26 00:15:00,77.2,58.2,29.53,North,-999,0.0,0.0,52,0.00,,,0.00,LWC V1.12 B30,2013-07-26 06:15:00,
2013-07-26 00:20:00,77.2,59.2,29.53,North,-999,0.0,0.0,54,0.00,,,0.00,LWC V1.12 B30,2013-07-26 06:20:00,
2013-07-26 00:25:00,76.9,60.0,29.53,North,-999,0.0,0.0,56,0.00,,,0.00,LWC V1.12 B30,2013-07-26 06:25:00,
2013-07-26 00:30:00,76.6,60.7,29.53,North,-999,0.0,0.0,58,0.00,,,0.00,LWC V1.12 B30,2013-07-26 06:30:00,
2013-07-26 00:35:00,75.9,61.9,29.53,North,-999,0.0,0.0,62,0.00,,,0.00,LWC V1.12 B30,2013-07-26 06:35:00,
2013-07-26 00:40:00,75.4,62.8,29.53,North,-999,0.0,0.0,65,0.00,,,0.00,LWC V1.12 B30,2013-07-26 06:40:00,
2013-07-26 00:45:00,75.2,62.6,29.53,North,-999,0.0,0.0,65,0.00,,,0.00,LWC V1.12 B30,2013-07-26 06:45:00,
2013-07-26 00:50:00,75.0,62.9,29.53,North,-999,0.0,0.0,66,0.00,,,0.00,LWC V1.12 B30,2013-07-26 06:50:00,
2013-07-26 00:55:00,74.6,61.2,29.53,North,-999,0.0,0.0,63,0.00,,,0.00,LWC V1.12 B30,2013-07-26 06:55:00,
2013-07-26 01:00:00,74.4,60.5,29.53,North,-999,0.0,0.0,62,0.00,,,0.00,LWC V1.12 B30,2013-07-26 07:00:00,
2013-07-26 01:05:00,74.3,60.9,29.53,North,-999,0.0,0.0,63,0.00,,,0.00,LWC V1.12 B30,2013-07-26 07:05:00,
2013-07-26 01:10:00,74.2,59.9,29.53,North,-999,0.0,0.0,61,0.00,,,0.00,LWC V1.12 B30,2013-07-26 07:10:00,
2013-07-26 01:15:00,74.1,60.2,29.53,North,-999,0.0,0.0,62,0.00,,,0.00,LWC V1.12 B30,2013-07-26 07:15:00,
2013-07-26 01:20:00,73.8,59.9,29.53,North,-999,0.0,0.0,62,0.00,,,0.00,LWC V1.12 B30,2013-07-26 07:20:00,
2013-07-26 01:25:00,73.7,59.4,29.53,North,-999,0.0,0.0,61,0.00,,,0.00,LWC V1.12 B30,2013-07-26 07:25:00,
2013-07-26 01:30:00,73.6,57.9,29.53,North,-999,0.0,0.0,58,0.00,,,0.00,LWC V1.12 B30,2013-07-26 07:30:00,
2013-07-26 01:35:00,73.0,59.6,29.53,North,-999,0.0,0.0,63,0.00,,,0.00,LWC V1.12 B30,2013-07-26 07:35:00,
2013-07-26 01:40:00,71.2,62.9,29.53,North,-999,0.0,0.0,75,0.23,,,0.00,LWC V1.12 B30,2013-07-26 07:40:00,
2013-07-26 01:45:00,70.2,64.4,29.53,North,-999,0.0,0.0,82,0.37,,,0.00,LWC V1.12 B30,2013-07-26 07:45:00,
2013-07-26 01:50:00,70.1,64.7,29.53,North,-999,0.0,0.0,83,0.00,,,0.10,LWC V1.12 B30,2013-07-26 07:50:00,
2013-07-26 01:55:00,69.8,64.4,29.53,North,-999,0.0,0.0,83,0.00,,,0.10,LWC V1.12 B30,2013-07-26 07:55:00,
2013-07-26 02:00:00,69.9,65.5,29.53,North,-999,0.0,0.0,86,0.00,,,0.10,LWC V1.12 B30,2013-07-26 08:00:00,
2013-07-26 02:05:00,69.6,65.6,29.53,North,-999,0.0,0.0,87,0.00,,,0.12,LWC V1.12 B30,2013-07-26 08:05:00,
2013-07-26 02:10:00,69.9,66.5,29.53,North,-999,0.0,0.0,89,0.00,,,0.12,LWC V1.12 B30,2013-07-26 08:10:00,
2013-07-26 02:15:00,69.9,67.1,29.53,North,-999,0.0,0.0,91,0.00,,,0.12,LWC V1.12 B30,2013-07-26 08:15:00,
2013-07-26 02:20:00,70.3,67.5,29.53,North,-999,0.0,0.0,91,0.00,,,0.12,LWC V1.12 B30,2013-07-26 08:20:00,
2013-07-26 02:25:00,70.3,67.5,29.53,North,-999,0.0,0.0,91,0.00,,,0.12,LWC V1.12 B30,2013-07-26 08:25:00,
2013-07-26 02:30:00,70.1,67.3,29.53,North,-999,0.0,0.0,91,0.00,,,0.12,LWC V1.12 B30,2013-07-26 08:30:00,
2013-07-26 02:35:00,69.8,67.0,29.53,North,-999,0.0,0.0,91,0.00,,,0.12,LWC V1.12 B30,2013-07-26 08:35:00,
2013-07-26 02:40:00,70.1,67.7,29.53,North,-999,0.0,0.0,92,0.56,,,0.12,LWC V1.12 B30,2013-07-26 08:40:00,
2013-07-26 02:45:00,69.4,67.3,29.53,North,-999,0.0,0.0,93,0.43,,,0.12,LWC V1.12 B30,2013-07-26 08:45:00,
2013-07-26 02:50:00,69.4,67.3,29.53,North,-999,0.0,0.0,93,0.00,,,0.23,LWC V1.12 B30,2013-07-26 08:50:00,
2013-07-26 02:55:00,69.8,67.7,29.53,North,-999,0.0,0.0,93,0.00,,,0.23,LWC V1.12 B30,2013-07-26 08:55:00,
2013-07-26 03:00:00,70.2,68.1,29.53,North,-999,0.0,0.0,93,0.11,,,0.23,LWC V1.12 B30,2013-07-26 09:00:00,
2013-07-26 03:05:00,70.1,68.3,29.53,North,-999,0.0,0.0,94,0.00,,,0.26,LWC V1.12 B30,2013-07-26 09:05:00,
2013-07-26 03:10:00,69.7,67.9,29.53,North,-999,0.0,0.0,94,0.03,,,0.26,LWC V1.12 B30,2013-07-26 09:10:00,
2013-07-26 03:15:00,69.8,68.0,29.53,North,-999,0.0,0.0,94,0.00,,,0.29,LWC V1.12 B30,2013-07-26 09:15:00,
2013-07-26 03:20:00,69.4,67.6,29.53,North,-999,0.0,0.0,94,0.00,,,0.29,LWC V1.12 B30,2013-07-26 09:20:00,
2013-07-26 03:26:00,70.0,68.2,29.53,North,-999,0.0,0.0,94,0.00,,,0.29,LWC V1.12 B30,2013-07-26 09:26:00,
2013-07-26 03:31:00,69.4,67.6,29.53,North,-999,0.0,0.0,94,0.00,,,0.29,LWC V1.12 B30,2013-07-26 09:31:00,
2013-07-26 03:36:00,69.8,68.0,29.53,North,-999,0.0,0.0,94,0.00,,,0.29,LWC V1.12 B30,2013-07-26 09:36:00,
2013-07-26 03:41:00,69.3,67.5,29.53,North,-999,0.0,0.0,94,0.00,,,0.29,LWC V1.12 B30,2013-07-26 09:41:00,
2013-07-26 03:46:00,69.3,67.5,29.53,North,-999,0.0,0.0,94,0.00,,,0.29,LWC V1.12 B30,2013-07-26 09:46:00,
2013-07-26 03:51:00,69.5,67.7,29.53,North,-999,0.0,0.0,94,0.00,,,0.29,LWC V1.12 B30,2013-07-26 09:51:00,
2013-07-26 03:56:00,69.2,67.4,29.53,North,-999,0.0,0.0,94,0.00,,,0.29,LWC V1.12 B30,2013-07-26 09:56:00,
2013-07-26 04:01:00,69.1,67.3,29.53,North,-999,0.0,0.0,94,0.00,,,0.29,LWC V1.12 B30,2013-07-26 10:01:00,
2013-07-26 04:06:00,69.8,68.0,29.53,North,-999,0.0,0.0,94,0.00,,,0.29,LWC V1.12 B30,2013-07-26 10:06:00,
2013-07-26 04:11:00,69.1,67.3,29.53,North,-999,0.0,0.0,94,0.00,,,0.29,LWC V1.12 B30,2013-07-26 10:11:00,
2013-07-26 04:16:00,69.4,67.6,29.53,North,-999,0.0,0.0,94,0.00,,,0.29,LWC V1.12 B30,2013-07-26 10:16:00,
2013-07-26 04:21:00,69.1,67.3,29.53,North,-999,0.0,0.0,94,0.00,,,0.29,LWC V1.12 B30,2013-07-26 10:21:00,
2013-07-26 04:26:00,69.7,67.9,29.53,North,-999,0.0,0.0,94,0.00,,,0.29,LWC V1.12 B30,2013-07-26 10:26:00,
2013-07-26 04:31:00,69.1,67.3,29.53,North,-999,0.0,0.0,94,0.00,,,0.29,LWC V1.12 B30,2013-07-26 10:31:00,
2013-07-26 04:36:00,68.8,67.0,29.53,North,-999,0.0,0.0,94,0.00,,,0.29,LWC V1.12 B30,2013-07-26 10:36:00,
2013-07-26 04:41:00,69.1,67.3,29.53,North,-999,0.0,0.0,94,0.00,,,0.29,LWC V1.12 B30,2013-07-26 10:41:00,
2013-07-26 04:46:00,69.0,67.2,29.53,North,-999,0.0,0.0,94,0.00,,,0.29,LWC V1.12 B30,2013-07-26 10:46:00,
2013-07-26 04:51:00,68.7,66.9,29.53,North,-999,0.0,0.0,94,0.00,,,0.29,LWC V1.12 B30,2013-07-26 10:51:00,
2013-07-26 04:56:00,68.8,67.0,29.53,North,-999,0.0,0.0,94,0.00,,,0.29,LWC V1.12 B30,2013-07-26 10:56:00,
2013-07-26 05:01:00,69.1,67.3,29.53,North,-999,0.0,0.0,94,0.00,,,0.29,LWC V1.12 B30,2013-07-26 11:01:00,
2013-07-26 05:06:00,68.6,66.8,29.53,North,-999,0.0,0.0,94,0.00,,,0.29,LWC V1.12 B30,2013-07-26 11:06:00,
2013-07-26 05:11:00,68.8,67.0,29.53,North,-999,0.0,0.0,94,0.00,,,0.29,LWC V1.12 B30,2013-07-26 11:11:00,
2013-07-26 05:16:00,68.5,66.7,29.53,North,-999,0.0,0.0,94,0.00,,,0.29,LWC V1.12 B30,2013-07-26 11:16:00,
2013-07-26 05:21:00,68.1,66.3,29.53,North,-999,0.0,0.0,94,0.00,,,0.29,LWC V1.12 B30,2013-07-26 11:21:00,
2013-07-26 05:26:00,68.2,66.4,29.53,North,-999,0.0,0.0,94,0.00,,,0.29,LWC V1.12 B30,2013-07-26 11:26:00,
2013-07-26 05:32:00,68.5,66.7,29.53,North,-999,0.0,0.0,94,0.00,,,0.29,LWC V1.12 B30,2013-07-26 11:32:00,
2013-07-26 05:37:00,68.5,66.7,29.53,North,-999,0.0,0.0,94,0.00,,,0.29,LWC V1.12 B30,2013-07-26 11:37:00,
2013-07-26 05:42:00,67.9,66.1,29.53,North,-999,0.0,0.0,94,0.00,,,0.29,LWC V1.12 B30,2013-07-26 11:42:00,
2013-07-26 05:47:00,68.1,66.3,29.53,North,-999,0.0,0.0,94,0.00,,,0.29,LWC V1.12 B30,2013-07-26 11:47:00,
2013-07-26 05:52:00,68.2,66.4,29.53,North,-999,0.0,0.0,94,0.00,,,0.29,LWC V1.12 B30,2013-07-26 11:52:00,
2013-07-26 05:57:00,67.9,65.8,29.53,North,-999,0.0,0.0,93,0.00,,,0.29,LWC V1.12 B30,2013-07-26 11:57:00,
2013-07-26 06:02:00,67.6,65.5,29.53,North,-999,0.0,0.0,93,0.00,,,0.29,LWC V1.12 B30,2013-07-26 12:02:00,
2013-07-26 06:07:00,67.6,65.8,29.53,North,-999,0.0,0.0,94,0.00,,,0.29,LWC V1.12 B30,2013-07-26 12:07:00,
2013-07-26 06:12:00,67.7,65.6,29.53,North,-999,0.0,0.0,93,0.00,,,0.29,LWC V1.12 B30,2013-07-26 12:12:00,
2013-07-26 06:17:00,67.9,66.1,29.53,North,-999,0.0,0.0,94,0.00,,,0.29,LWC V1.12 B30,2013-07-26 12:17:00,
2013-07-26 06:22:00,67.4,65.6,29.53,North,-999,0.0,0.0,94,0.00,,,0.29,LWC V1.12 B30,2013-07-26 12:22:00,
2013-07-26 06:27:00,67.6,65.8,29.53,North,-999,0.0,0.0,94,0.00,,,0.29,LWC V1.12 B30,2013-07-26 12:27:00,
2013-07-26 06:32:00,67.5,65.7,29.53,North,-999,0.0,0.0,94,0.00,,,0.29,LWC V1.12 B30,2013-07-26 12:32:00,
2013-07-26 06:37:00,67.5,65.7,29.53,North,-999,0.0,0.0,94,0.00,,,0.29,LWC V1.12 B30,2013-07-26 12:37:00,
2013-07-26 06:42:00,67.8,66.0,29.53,North,-999,0.0,0.0,94,0.00,,,0.29,LWC V1.12 B30,2013-07-26 12:42:00,
2013-07-26 06:47:00,67.6,65.8,29.53,North,-999,0.0,0.0,94,0.00,,,0.29,LWC V1.12 B30,2013-07-26 12:47:00,
2013-07-26 06:52:00,67.8,66.0,29.53,North,-999,0.0,0.0,94,0.00,,,0.29,LWC V1.12 B30,2013-07-26 12:52:00,
2013-07-26 06:57:00,67.6,65.8,29.53,North,-999,0.0,0.0,94,0.00,,,0.29,LWC V1.12 B30,2013-07-26 12:57:00,
2013-07-26 07:02:00,67.9,65.8,29.53,North,-999,0.0,0.0,93,0.00,,,0.31,LWC V1.12 B30,2013-07-26 13:02:00,
2013-07-26 07:07:00,67.7,65.6,29.53,North,-999,0.0,0.0,93,0.00,,,0.31,LWC V1.12 B30,2013-07-26 13:07:00,
2013-07-26 07:12:00,68.1,65.7,29.53,North,-999,0.0,0.0,92,0.00,,,0.31,LWC V1.12 B30,2013-07-26 13:12:00,
2013-07-26 07:17:00,68.1,65.7,29.53,North,-999,0.0,0.0,92,0.00,,,0.31,LWC V1.12 B30,2013-07-26 13:17:00,
2013-07-26 07:22:00,67.8,65.4,29.53,North,-999,0.0,0.0,92,0.00,,,0.31,LWC V1.12 B30,2013-07-26 13:22:00,
2013-07-26 07:27:00,68.1,65.4,29.53,North,-999,0.0,0.0,91,0.00,,,0.31,LWC V1.12 B30,2013-07-26 13:27:00,
2013-07-26 07:32:00,68.3,65.6,29.53,North,-999,0.0,0.0,91,0.00,,,0.31,LWC V1.12 B30,2013-07-26 13:32:00,
2013-07-26 07:37:00,68.2,65.1,29.53,North,-999,0.0,0.0,90,0.00,,,0.31,LWC V1.12 B30,2013-07-26 13:37:00,
2013-07-26 07:42:00,68.2,65.1,29.53,North,-999,0.0,0.0,90,0.00,,,0.31,LWC V1.12 B30,2013-07-26 13:42:00,
2013-07-26 07:47:00,68.7,66.0,29.53,North,-999,0.0,0.0,91,0.00,,,0.31,LWC V1.12 B30,2013-07-26 13:47:00,
2013-07-26 07:52:00,68.7,65.6,29.53,North,-999,0.0,0.0,90,0.00,,,0.31,LWC V1.12 B30,2013-07-26 13:52:00,
2013-07-26 07:57:00,68.7,65.3,29.53,North,-999,0.0,0.0,89,0.00,,,0.31,LWC V1.12 B30,2013-07-26 13:57:00,
2013-07-26 08:02:00,68.5,64.8,29.53,North,-999,0.0,0.0,88,0.00,,,0.31,LWC V1.12 B30,2013-07-26 14:02:00,
2013-07-26 08:07:00,68.7,65.0,29.53,North,-999,0.0,0.0,88,0.00,,,0.31,LWC V1.12 B30,2013-07-26 14:07:00,
2013-07-26 08:12:00,68.9,65.2,29.53,North,-999,0.0,0.0,88,0.00,,,0.31,LWC V1.12 B30,2013-07-26 14:12:00,
2013-07-26 08:17:00,68.8,65.1,29.53,North,-999,0.0,0.0,88,0.00,,,0.31,LWC V1.12 B30,2013-07-26 14:17:00,
2013-07-26 08:22:00,69.1,65.4,29.53,North,-999,0.0,0.0,88,0.00,,,0.31,LWC V1.12 B30,2013-07-26 14:22:00,
2013-07-26 08:27:00,69.2,65.5,29.53,North,-999,0.0,0.0,88,0.00,,,0.31,LWC V1.12 B30,2013-07-26 14:27:00,
2013-07-26 08:32:00,69.2,65.5,29.53,North,-999,0.0,0.0,88,0.00,,,0.31,LWC V1.12 B30,2013-07-26 14:32:00,
2013-07-26 08:37:00,70.1,66.0,29.53,North,-999,0.0,0.0,87,0.00,,,0.31,LWC V1.12 B30,2013-07-26 14:37:00,
2013-07-26 08:42:00,70.7,66.3,29.53,North,-999,0.0,0.0,86,0.00,,,0.31,LWC V1.12 B30,2013-07-26 14:42:00,
2013-07-26 08:47:00,70.4,66.0,29.53,North,-999,0.0,0.0,86,0.00,,,0.31,LWC V1.12 B30,2013-07-26 14:47:00,
2013-07-26 08:52:00,70.9,66.2,29.53,North,-999,0.0,0.0,85,0.00,,,0.31,LWC V1.12 B30,2013-07-26 14:52:00,
2013-07-26 08:57:00,71.0,66.6,29.53,North,-999,0.0,0.0,86,0.00,,,0.31,LWC V1.12 B30,2013-07-26 14:57:00,
2013-07-26 09:02:00,71.8,67.0,29.53,North,-999,0.0,0.0,85,0.00,,,0.31,LWC V1.12 B30,2013-07-26 15:02:00,
2013-07-26 09:07:00,72.1,67.3,29.53,North,-999,0.0,0.0,85,0.00,,,0.31,LWC V1.12 B30,2013-07-26 15:07:00,
2013-07-26 09:12:00,72.5,67.0,29.53,North,-999,0.0,0.0,83,0.00,,,0.31,LWC V1.12 B30,2013-07-26 15:12:00,
2013-07-26 09:17:00,73.1,67.6,29.53,North,-999,0.0,0.0,83,0.00,,,0.31,LWC V1.12 B30,2013-07-26 15:17:00,
2013-07-26 09:22:00,73.5,67.7,29.53,North,-999,0.0,0.0,82,0.00,,,0.31,LWC V1.12 B30,2013-07-26 15:22:00,
2013-07-26 09:27:00,73.8,68.3,29.53,North,-999,0.0,0.0,83,0.00,,,0.31,LWC V1.12 B30,2013-07-26 15:27:00,
2013-07-26 09:32:00,74.4,68.2,29.53,North,-999,0.0,0.0,81,0.00,,,0.31,LWC V1.12 B30,2013-07-26 15:32:00,
2013-07-26 09:37:00,74.7,67.4,29.53,North,-999,0.0,0.0,78,0.00,,,0.31,LWC V1.12 B30,2013-07-26 15:37:00,
2013-07-26 09:43:00,74.8,67.8,29.53,North,-999,0.0,0.0,79,0.00,,,0.31,LWC V1.12 B30,2013-07-26 15:43:00,
2013-07-26 09:48:00,75.2,69.0,29.53,North,-999,0.0,0.0,81,0.00,,,0.31,LWC V1.12 B30,2013-07-26 15:48:00,
2013-07-26 09:53:00,75.3,67.2,29.53,North,-999,0.0,0.0,76,0.00,,,0.31,LWC V1.12 B30,2013-07-26 15:53:00,
2013-07-26 09:58:00,75.7,67.2,29.53,North,-999,0.0,0.0,75,0.00,,,0.31,LWC V1.12 B30,2013-07-26 15:58:00,
2013-07-26 10:03:00,76.1,68.7,29.53,North,-999,0.0,0.0,78,0.00,,,0.31,LWC V1.12 B30,2013-07-26 16:03:00,
2013-07-26 10:08:00,76.6,68.5,29.53,North,-999,0.0,0.0,76,0.00,,,0.31,LWC V1.12 B30,2013-07-26 16:08:00,
2013-07-26 10:13:00,77.0,68.4,29.53,North,-999,0.0,0.0,75,0.00,,,0.31,LWC V1.12 B30,2013-07-26 16:13:00,
2013-07-26 10:18:00,77.4,69.2,29.53,North,-999,0.0,0.0,76,0.00,,,0.31,LWC V1.12 B30,2013-07-26 16:18:00,
2013-07-26 10:23:00,77.8,68.8,29.53,North,-999,0.0,0.0,74,0.00,,,0.31,LWC V1.12 B30,2013-07-26 16:23:00,
2013-07-26 10:28:00,77.8,68.4,29.53,North,-999,0.0,0.0,73,0.00,,,0.31,LWC V1.12 B30,2013-07-26 16:28:00,
2013-07-26 10:33:00,78.2,69.2,29.53,North,-999,0.0,0.0,74,0.00,,,0.31,LWC V1.12 B30,2013-07-26 16:33:00,
2013-07-26 10:38:00,78.9,69.1,29.53,North,-999,0.0,0.0,72,0.00,,,0.31,LWC V1.12 B30,2013-07-26 16:38:00,
2013-07-26 10:43:00,79.2,69.0,29.53,North,-999,0.0,0.0,71,0.00,,,0.31,LWC V1.12 B30,2013-07-26 16:43:00,
2013-07-26 10:48:00,79.7,68.6,29.53,North,-999,0.0,0.0,69,0.00,,,0.31,LWC V1.12 B30,2013-07-26 16:48:00,
2013-07-26 10:53:00,79.9,67.9,29.53,North,-999,0.0,0.0,67,0.00,,,0.31,LWC V1.12 B30,2013-07-26 16:53:00,
2013-07-26 10:58:00,79.8,67.8,29.53,North,-999,0.0,0.0,67,0.00,,,0.31,LWC V1.12 B30,2013-07-26 16:58:00,
2013-07-26 11:03:00,80.5,68.9,29.53,North,-999,0.0,0.0,68,0.00,,,0.31,LWC V1.12 B30,2013-07-26 17:03:00,
2013-07-26 11:08:00,80.6,66.8,29.53,North,-999,0.0,0.0,63,0.00,,,0.31,LWC V1.12 B30,2013-07-26 17:08:00,
2013-07-26 11:13:00,80.7,67.4,29.53,North,-999,0.0,0.0,64,0.00,,,0.31,LWC V1.12 B30,2013-07-26 17:13:00,
2013-07-26 11:18:00,81.1,67.3,29.53,North,-999,0.0,0.0,63,0.00,,,0.31,LWC V1.12 B30,2013-07-26 17:18:00,
2013-07-26 11:23:00,81.5,66.7,29.53,North,-999,0.0,0.0,61,0.00,,,0.31,LWC V1.12 B30,2013-07-26 17:23:00,
2013-07-26 11:28:00,81.6,65.4,29.53,North,-999,0.0,0.0,58,0.00,,,0.31,LWC V1.12 B30,2013-07-26 17:28:00,
2013-07-26 11:33:00,82.1,65.8,29.53,North,-999,0.0,0.0,58,0.00,,,0.31,LWC V1.12 B30,2013-07-26 17:33:00,
2013-07-26 11:38:00,82.3,63.4,29.53,North,-999,0.0,0.0,53,0.00,,,0.31,LWC V1.12 B30,2013-07-26 17:38:00,
2013-07-26 11:43:00,82.6,64.8,29.53,North,-999,0.0,0.0,55,0.00,,,0.31,LWC V1.12 B30,2013-07-26 17:43:00,
2013-07-26 11:48:00,83.2,64.8,29.53,North,-999,0.0,0.0,54,0.00,,,0.31,LWC V1.12 B30,2013-07-26 17:48:00,
2013-07-26 11:54:00,83.7,64.7,29.53,North,-999,0.0,0.0,53,0.00,,,0.31,LWC V1.12 B30,2013-07-26 17:54:00,
2013-07-26 11:59:00,84.1,64.0,29.53,North,-999,0.0,0.0,51,0.00,,,0.31,LWC V1.12 B30,2013-07-26 17:59:00,
2013-07-26 12:04:00,84.5,62.6,29.53,North,-999,0.0,0.0,48,0.00,,,0.31,LWC V1.12 B30,2013-07-26 18:04:00,
2013-07-26 12:09:00,84.8,62.9,29.53,North,-999,0.0,0.0,48,0.00,,,0.31,LWC V1.12 B30,2013-07-26 18:09:00,
2013-07-26 12:10:00,84.7,62.8,29.53,North,-999,0.0,0.0,48,0.00,,,0.31,LWC V1.12 B30,2013-07-26 18:10:00,
2013-07-26 12:15:00,85.0,63.1,29.53,North,-999,0.0,0.0,48,0.00,,,0.31,LWC V1.12 B30,2013-07-26 18:15:00,
2013-07-26 12:20:00,85.5,62.9,29.53,North,-999,0.0,0.0,47,0.00,,,0.31,LWC V1.12 B30,2013-07-26 18:20:00,
2013-07-26 12:25:00,85.6,63.0,29.53,North,-999,0.0,0.0,47,0.00,,,0.31,LWC V1.12 B30,2013-07-26 18:25:00,
2013-07-26 12:30:00,85.7,63.7,29.53,North,-999,0.0,0.0,48,0.00,,,0.31,LWC V1.12 B30,2013-07-26 18:30:00,
2013-07-26 12:35:00,86.1,62.9,29.53,North,-999,0.0,0.0,46,0.00,,,0.31,LWC V1.12 B30,2013-07-26 18:35:00,
2013-07-26 12:40:00,86.3,61.1,29.53,North,-999,0.0,0.0,43,0.00,,,0.31,LWC V1.12 B30,2013-07-26 18:40:00,
2013-07-26 12:45:00,86.2,63.0,29.53,North,-999,0.0,0.0,46,0.00,,,0.31,LWC V1.12 B30,2013-07-26 18:45:00,
2013-07-26 12:50:00,86.4,62.5,29.53,North,-999,0.0,0.0,45,0.00,,,0.31,LWC V1.12 B30,2013-07-26 18:50:00,
2013-07-26 12:55:00,86.7,62.1,29.53,North,-999,0.0,0.0,44,0.00,,,0.31,LWC V1.12 B30,2013-07-26 18:55:00,
2013-07-26 13:00:00,87.0,61.8,29.53,North,-999,0.0,0.0,43,0.00,,,0.31,LWC V1.12 B30,2013-07-26 19:00:00,
2013-07-26 13:05:00,87.4,62.8,29.53,North,-999,0.0,0.0,44,0.00,,,0.31,LWC V1.12 B30,2013-07-26 19:05:00,
2013-07-26 13:10:00,87.6,62.3,29.53,North,-999,0.0,0.0,43,0.00,,,0.31,LWC V1.12 B30,2013-07-26 19:10:00,
2013-07-26 13:15:00,87.6,60.9,29.53,North,-999,0.0,0.0,41,0.00,,,0.31,LWC V1.12 B30,2013-07-26 19:15:00,
2013-07-26 13:20:00,87.3,61.4,29.53,North,-999,0.0,0.0,42,0.00,,,0.31,LWC V1.12 B30,2013-07-26 19:20:00,
2013-07-26 13:25:00,87.0,61.8,29.53,North,-999,0.0,0.0,43,0.00,,,0.31,LWC V1.12 B30,2013-07-26 19:25:00,
2013-07-26 13:30:00,87.2,60.6,29.53,North,-999,0.0,0.0,41,0.00,,,0.31,LWC V1.12 B30,2013-07-26 19:30:00,
2013-07-26 13:35:00,87.4,61.5,29.53,North,-999,0.0,0.0,42,0.00,,,0.31,LWC V1.12 B30,2013-07-26 19:35:00,
2013-07-26 13:40:00,88.1,62.1,29.53,North,-999,0.0,0.0,42,0.00,,,0.31,LWC V1.12 B30,2013-07-26 19:40:00,
2013-07-26 13:45:00,88.5,59.6,29.53,North,-999,0.0,0.0,38,0.00,,,0.31,LWC V1.12 B30,2013-07-26 19:45:00,
2013-07-26 13:50:00,88.3,60.2,29.53,North,-999,0.0,0.0,39,0.00,,,0.31,LWC V1.12 B30,2013-07-26 19:50:00,
2013-07-26 13:55:00,88.5,59.6,29.53,North,-999,0.0,0.0,38,0.00,,,0.31,LWC V1.12 B30,2013-07-26 19:55:00,
2013-07-26 14:01:00,88.5,59.6,29.53,North,-999,0.0,0.0,38,0.00,,,0.31,LWC V1.12 B30,2013-07-26 20:01:00,
2013-07-26 14:06:00,88.7,59.8,29.53,North,-999,0.0,0.0,38,0.00,,,0.31,LWC V1.12 B30,2013-07-26 20:06:00,
2013-07-26 14:11:00,88.8,59.9,29.53,North,-999,0.0,0.0,38,0.00,,,0.31,LWC V1.12 B30,2013-07-26 20:11:00,
2013-07-26 14:16:00,88.9,59.2,29.53,North,-999,0.0,0.0,37,0.00,,,0.31,LWC V1.12 B30,2013-07-26 20:16:00,
2013-07-26 14:21:00,88.8,59.9,29.53,North,-999,0.0,0.0,38,0.00,,,0.31,LWC V1.12 B30,2013-07-26 20:21:00,
2013-07-26 14:26:00,89.0,60.1,29.53,North,-999,0.0,0.0,38,0.00,,,0.31,LWC V1.12 B30,2013-07-26 20:26:00,
2013-07-26 14:31:00,88.8,60.6,29.53,North,-999,0.0,0.0,39,0.00,,,0.31,LWC V1.12 B30,2013-07-26 20:31:00,
2013-07-26 14:36:00,89.1,60.1,29.53,North,-999,0.0,0.0,38,0.00,,,0.31,LWC V1.12 B30,2013-07-26 20:36:00,
2013-07-26 14:41:00,89.4,60.4,29.53,North,-999,0.0,0.0,38,0.00,,,0.31,LWC V1.12 B30,2013-07-26 20:41:00,
2013-07-26 14:46:00,89.3,60.3,29.53,North,-999,0.0,0.0,38,0.00,,,0.31,LWC V1.12 B30,2013-07-26 20:46:00,
2013-07-26 14:51:00,88.9,60.0,29.53,North,-999,0.0,0.0,38,0.00,,,0.31,LWC V1.12 B30,2013-07-26 20:51:00,
2013-07-26 14:56:00,88.8,59.9,29.53,North,-999,0.0,0.0,38,0.00,,,0.31,LWC V1.12 B30,2013-07-26 20:56:00,
2013-07-26 15:01:00,88.6,59.7,29.53,North,-999,0.0,0.0,38,0.00,,,0.31,LWC V1.12 B30,2013-07-26 21:01:00,
2013-07-26 15:06:00,88.2,59.3,29.53,North,-999,0.0,0.0,38,0.00,,,0.31,LWC V1.12 B30,2013-07-26 21:06:00,
2013-07-26 15:11:00,88.1,59.3,29.53,North,-999,0.0,0.0,38,0.00,,,0.31,LWC V1.12 B30,2013-07-26 21:11:00,
2013-07-26 15:16:00,88.2,58.6,29.53,North,-999,0.0,0.0,37,0.00,,,0.31,LWC V1.12 B30,2013-07-26 21:16:00,
2013-07-26 15:21:00,88.9,60.7,29.53,North,-999,0.0,0.0,39,0.00,,,0.31,LWC V1.12 B30,2013-07-26 21:21:00,
2013-07-26 15:26:00,89.4,58.9,29.53,North,-999,0.0,0.0,36,0.00,,,0.31,LWC V1.12 B30,2013-07-26 21:26:00,
2013-07-26 15:31:00,89.3,58.8,29.53,North,-999,0.0,0.0,36,0.00,,,0.31,LWC V1.12 B30,2013-07-26 21:31:00,
2013-07-26 15:32:00,89.3,58.8,29.53,North,-999,0.0,0.0,36,0.00,,,0.31,LWC V1.12 B30,2013-07-26 21:32:00,
2013-07-26 15:37:00,89.6,59.8,29.53,North,-999,0.0,0.0,37,0.00,,,0.31,LWC V1.12 B30,2013-07-26 21:37:00,
2013-07-26 15:42:00,89.6,60.6,29.53,North,-999,0.0,0.0,38,0.00,,,0.31,LWC V1.12 B30,2013-07-26 21:42:00,
2013-07-26 15:47:00,89.5,57.4,29.53,North,-999,0.0,0.0,34,0.00,,,0.31,LWC V1.12 B30,2013-07-26 21:47:00,
2013-07-26 15:52:00,89.6,58.3,29.53,North,-999,0.0,0.0,35,0.00,,,0.31,LWC V1.12 B30,2013-07-26 21:52:00,
2013-07-26 15:57:00,89.6,57.5,29.53,North,-999,0.0,0.0,34,0.00,,,0.31,LWC V1.12 B30,2013-07-26 21:57:00,
2013-07-26 16:02:00,89.7,57.6,29.53,North,-999,0.0,0.0,34,0.00,,,0.31,LWC V1.12 B30,2013-07-26 22:02:00,
2013-07-26 16:07:00,89.9,57.7,29.53,North,-999,0.0,0.0,34,0.00,,,0.31,LWC V1.12 B30,2013-07-26 22:07:00,
2013-07-26 16:12:00,90.0,57.8,29.53,North,-999,0.0,0.0,34,0.00,,,0.31,LWC V1.12 B30,2013-07-26 22:12:00,
2013-07-26 16:18:00,89.8,57.6,29.53,North,-999,0.0,0.0,34,0.00,,,0.31,LWC V1.12 B30,2013-07-26 22:18:00,
2013-07-26 16:23:00,89.7,57.6,29.53,North,-999,0.0,0.0,34,0.00,,,0.31,LWC V1.12 B30,2013-07-26 22:23:00,
2013-07-26 16:28:00,89.7,57.6,29.53,North,-999,0.0,0.0,34,0.00,,,0.31,LWC V1.12 B30,2013-07-26 22:28:00,
2013-07-26 16:33:00,89.2,58.7,29.53,North,-999,0.0,0.0,36,0.00,,,0.31,LWC V1.12 B30,2013-07-26 22:33:00,
2013-07-26 16:38:00,88.9,57.7,29.53,North,-999,0.0,0.0,35,0.00,,,0.31,LWC V1.12 B30,2013-07-26 22:38:00,
2013-07-26 16:43:00,88.5,58.1,29.53,North,-999,0.0,0.0,36,0.00,,,0.31,LWC V1.12 B30,2013-07-26 22:43:00,
2013-07-26 16:48:00,88.4,57.2,29.53,North,-999,0.0,0.0,35,0.00,,,0.31,LWC V1.12 B30,2013-07-26 22:48:00,
2013-07-26 16:53:00,88.0,57.7,29.53,North,-999,0.0,0.0,36,0.00,,,0.31,LWC V1.12 B30,2013-07-26 22:53:00,
2013-07-26 16:58:00,87.7,58.2,29.53,North,-999,0.0,0.0,37,0.00,,,0.31,LWC V1.12 B30,2013-07-26 22:58:00,
2013-07-26 17:03:00,87.6,58.8,29.53,North,-999,0.0,0.0,38,0.00,,,0.31,LWC V1.12 B30,2013-07-26 23:03:00,
2013-07-26 17:08:00,87.5,59.5,29.53,North,-999,0.0,0.0,39,0.00,,,0.31,LWC V1.12 B30,2013-07-26 23:08:00,
2013-07-26 17:13:00,87.4,59.4,29.53,North,-999,0.0,0.0,39,0.00,,,0.31,LWC V1.12 B30,2013-07-26 23:13:00,
2013-07-26 17:18:00,87.4,59.4,29.53,North,-999,0.0,0.0,39,0.00,,,0.31,LWC V1.12 B30,2013-07-26 23:18:00,
2013-07-26 17:23:00,87.5,59.5,29.53,North,-999,0.0,0.0,39,0.00,,,0.31,LWC V1.12 B30,2013-07-26 23:23:00,
2013-07-26 17:28:00,87.4,60.1,29.53,North,-999,0.0,0.0,40,0.00,,,0.31,LWC V1.12 B30,2013-07-26 23:28:00,
2013-07-26 17:33:00,87.4,58.6,29.53,North,-999,0.0,0.0,38,0.00,,,0.31,LWC V1.12 B30,2013-07-26 23:33:00,
2013-07-26 17:38:00,87.2,59.2,29.53,North,-999,0.0,0.0,39,0.00,,,0.31,LWC V1.12 B30,2013-07-26 23:38:00,
2013-07-26 17:43:00,87.2,58.5,29.53,North,-999,0.0,0.0,38,0.00,,,0.31,LWC V1.12 B30,2013-07-26 23:43:00,
2013-07-26 17:48:00,87.2,59.2,29.53,North,-999,0.0,0.0,39,0.00,,,0.31,LWC V1.12 B30,2013-07-26 23:48:00,
2013-07-26 17:53:00,87.1,59.1,29.53,North,-999,0.0,0.0,39,0.00,,,0.31,LWC V1.12 B30,2013-07-26 23:53:00,
2013-07-26 17:58:00,87.0,59.7,29.53,North,-999,0.0,0.0,40,0.00,,,0.31,LWC V1.12 B30,2013-07-26 23:58:00,
2013-07-26 18:03:00,86.8,58.1,29.53,North,-999,0.0,0.0,38,0.00,,,0.31,LWC V1.12 B30,2013-07-27 00:03:00,
2013-07-26 18:08:00,86.6,58.7,29.53,North,-999,0.0,0.0,39,0.00,,,0.31,LWC V1.12 B30,2013-07-27 00:08:00,
2013-07-26 18:13:00,86.5,58.6,29.53,North,-999,0.0,0.0,39,0.00,,,0.31,LWC V1.12 B30,2013-07-27 00:13:00,
2013-07-26 18:18:00,86.3,58.4,29.53,North,-999,0.0,0.0,39,0.00,,,0.31,LWC V1.12 B30,2013-07-27 00:18:00,
2013-07-26 18:24:00,86.2,58.3,29.53,North,-999,0.0,0.0,39,0.00,,,0.31,LWC V1.12 B30,2013-07-27 00:24:00,
2013-07-26 18:29:00,86.1,58.2,29.53,North,-999,0.0,0.0,39,0.00,,,0.31,LWC V1.12 B30,2013-07-27 00:29:00,
2013-07-26 18:34:00,85.8,57.9,29.53,North,-999,0.0,0.0,39,0.00,,,0.31,LWC V1.12 B30,2013-07-27 00:34:00,
2013-07-26 18:39:00,85.7,57.9,29.53,North,-999,0.0,0.0,39,0.00,,,0.31,LWC V1.12 B30,2013-07-27 00:39:00,
2013-07-26 18:44:00,85.5,57.0,29.53,North,-999,0.0,0.0,38,0.00,,,0.31,LWC V1.12 B30,2013-07-27 00:44:00,
2013-07-26 18:49:00,85.2,56.0,29.53,North,-999,0.0,0.0,37,0.00,,,0.31,LWC V1.12 B30,2013-07-27 00:49:00,
2013-07-26 18:54:00,85.0,56.5,29.53,North,-999,0.0,0.0,38,0.00,,,0.31,LWC V1.12 B30,2013-07-27 00:54:00,
2013-07-26 18:59:00,84.9,56.4,29.53,North,-999,0.0,0.0,38,0.00,,,0.31,LWC V1.12 B30,2013-07-27 00:59:00,
2013-07-26 19:04:00,84.7,56.2,29.53,North,-999,0.0,0.0,38,0.00,,,0.31,LWC V1.12 B30,2013-07-27 01:04:00,
2013-07-26 19:09:00,84.5,56.8,29.53,North,-999,0.0,0.0,39,0.00,,,0.31,LWC V1.12 B30,2013-07-27 01:09:00,
2013-07-26 19:14:00,84.4,56.0,29.53,North,-999,0.0,0.0,38,0.00,,,0.31,LWC V1.12 B30,2013-07-27 01:14:00,
2013-07-26 19:19:00,84.2,56.5,29.53,North,-999,0.0,0.0,39,0.00,,,0.31,LWC V1.12 B30,2013-07-27 01:19:00,
2013-07-26 19:24:00,84.0,57.0,29.53,North,-999,0.0,0.0,40,0.00,,,0.31,LWC V1.12 B30,2013-07-27 01:24:00,
2013-07-26 19:29:00,83.4,56.5,29.53,North,-999,0.0,0.0,40,0.00,,,0.31,LWC V1.12 B30,2013-07-27 01:29:00,